Regional Weather Roundup
Issued by NWS

Home | Current Version | Previous Version | Graphics & Text | Print | Product List | Glossary On
Versions: 1 2 3 4 5 6 7 8 9 10 11 12 13 14 15 16 17 18 19 20 21 22 23 24 25 26 27 28 29 30 31 32 33 34 35 36 37 38 39 40 41 42 43 44 45 46 47 48 49 50
000
ASUS45 KSLC 250710
RWRUT

UTAH REGIONAL WEATHER ROUNDUP
NATIONAL WEATHER SERVICE SALT LAKE CITY UT
100 AM MDT MON SEP 25 2017

UTZ001>011-023>025-250800-

NORTHERN UTAH

CITY           SKY/WX    TMP DP  RH WIND       PRES   REMARKS
BRIGHAM CITY   CLOUDY    45  39  80 CALM      30.13S
HILL AFB       CLOUDY    43  38  82 CALM      30.13R
LOGAN          CLOUDY    44  41  89 N3        30.11S
OGDEN          CLOUDY    45  40  82 SE5       30.12S
SALT LAKE CITY CLOUDY    46  41  82 SE6       30.12S
TOOELE VALLEY  PTCLDY    43  36  75 S10       30.13R
WENDOVER       CLEAR     46  37  71 CALM      30.10F
HEBER CITY     CLOUDY    37  34  87 CALM      30.13S
WEST JORDAN    CLOUDY    43  43 100 S3        30.13S

$$

UTZ011>015-024>027-250800-

CENTRAL/NORTHEAST UTAH

CITY           SKY/WX    TMP DP  RH WIND       PRES   REMARKS
PROVO AIRPORT  CLOUDY    43  41  93 SE5       30.15R
MOAB/CANYONLAN CLEAR     47  32  56 W9        30.05R
DELTA          CLEAR     36  36 100 NE6       30.13S WCI  31
PRICE          CLEAR     40  31  70 W8        30.10R WCI  34
ROOSEVELT      CLEAR     41  36  81 N6        30.11R
VERNAL         PTCLDY    39  36  89 CALM      30.09S

$$

UTZ013>016-019>022-027-250800-

SOUTHERN UTAH

CITY           SKY/WX    TMP DP  RH WIND       PRES   REMARKS
BRYCE CANYON   CLEAR     28  23  81 W6        30.15S WCI  22
CEDAR CITY     CLEAR     36  32  85 N7        30.10S WCI  30
MILFORD        CLEAR     36  33  89 CALM      30.12S
ST GEORGE      PTSUNNY   58  30  34 NE5       30.02S
HANKSVILLE     CLEAR     45  28  53 CALM      30.09S
BLANDING         N/A     41  23  48 NW9       30.10F

$$

REGIONAL REPORTS     COLORADO/ARIZONA

CITY           SKY/WX    TMP DP  RH WIND       PRES   REMARKS
CRAIG, CO      CLEAR     34  29  82 CALM      30.10S
GRAND JUNCTION CLEAR     41  30  65 NE3       30.05S
RIFLE, CO      CLEAR     40  34  79 CALM      30.08R
MONTROSE, CO   CLEAR     39  25  57 SE10      30.10R WCI  32
CORTEZ, CO     CLEAR     32  28  85 E6        30.06R WCI  26
PAGE, AZ       CLEAR     55  26  32 W6        30.02S
GRAND CANYON   CLEAR     27  12  53 CALM      30.09S
KINGMAN, AZ    CLEAR     51  26  37 SE5       30.00R
FLAGSTAFF, AZ  CLEAR     28  11  48 CALM      30.08F

$$

REGIONAL REPORTS    NEVADA/IDAHO/WYOMING

CITY           SKY/WX    TMP DP  RH WIND       PRES   REMARKS
LAS VEGAS, NV  CLEAR     64  29  26 SW3       29.97R
ELY, NY        CLEAR     28  25  88 S10       30.16R WCI  19
ELKO, NV       CLEAR     34  29  82 CALM      30.12F
POCATELLO, ID  CLOUDY    44  35  70 S5        30.10S
BURLEY, ID     PTCLDY    39  31  72 SW8       30.08R WCI  33
FORT BRIDGER,  CLOUDY    36  36 100 W12       30.14S WCI  28
EVANSTON, WY   CLOUDY    34  34 100 SW8       30.13R FOG     WCI  27
ROCK SPRINGS,  CLOUDY    34  33  96 NE5       30.10R WCI  30

$$



USA.gov is the U.S. government's official web portal to all federal, state and local government web resources and services.